New York, NY

3:06 AM EDT on September 17, 2019 (GMT -0400)
La Guardia

Weather History for KLGA - August, 2019

Change the Weather History Date:

Sunday, August 25, 2019

  Actual Average Record
Temperature  
Mean Temperature 72 °F 75 °F  
Max Temperature 77 °F 83 °F 96 °F (1948)
Min Temperature 66 °F 68 °F 53 °F (1940)
Degree Days  
Heating Degree Days 0 0  
Month to date heating degree days 0 0  
Since 1 June heating degree days 4 16  
Since 1 July heating degree days 0 0  
Cooling Degree Days 7 10  
Month to date cooling degree days 348 293  
Year to date cooling degree days 1173 975  
Since 1 June cooling degree days 1111 909  
Growing Degree Days 22 (Base 50)    
Moisture  
Dew Point 55 °F    
Average Humidity 61    
Maximum Humidity 78    
Minimum Humidity 43    
Precipitation  
Precipitation 0.00 in 0.13 in 2.09 in (1958)
Month to date precipitation 3.04 3.44  
Year to date precipitation 35.74 29.57  
Snow  
Snow 0.00 in 0.00 in - ()
Month to date snowfall 0.0 0.0  
Since 1 July snowfall 0.0 0.0  
Snow Depth 0.00 in    
Sea Level Pressure  
Sea Level Pressure 30.24 in    
Wind  
Wind Speed 16 mph (ENE)    
Max Wind Speed 26 mph    
Max Gust Speed 34 mph    
Visibility 10 miles    
Events      
T = Trace of Precipitation, MM = Missing Value Source: NWS Daily Summary

Daily Weather History Graph

Daily Weather History Graph

Search for Another Location

Airport or City:

Astronomy

Aug. 25, 2019 Rise Set
Actual Time 6:15 AM EDT 7:39 PM EDT
Civil Twilight 5:46 AM EDT 8:07 PM EDT
Nautical Twilight 5:12 AM EDT 8:42 PM EDT
Astronomical Twilight 4:35 AM EDT 9:18 PM EDT
Moon 12:47 AM EDT (8/25) 3:58 PM EDT (8/25)
Length of Visible Light 14h 21m
Length of Day
13h 23m
Waning Crescent, 29% of the Moon is Illuminated
Aug 25
Waning Crescent
Aug 30
New
Sep 5
First Quarter
Sep 14
Full
Sep 21
Last Quarter

Hourly Weather History & Observations

Time (EDT) Temp. Dew Point Humidity Pressure Visibility Wind Dir Wind Speed Gust Speed Precip Events Conditions
12:51 AM 69.1 °F 55.0 °F 61% 30.25 in 10.0 mi ESE 12.7 mph - N/A   Mostly Cloudy
1:51 AM 68.0 °F 55.9 °F 65% 30.24 in 10.0 mi East 11.5 mph - N/A   Mostly Cloudy
2:51 AM 68.0 °F 55.9 °F 65% 30.23 in 10.0 mi ENE 9.2 mph - N/A   Mostly Cloudy
3:51 AM 66.9 °F 55.9 °F 68% 30.24 in 10.0 mi East 11.5 mph - N/A   Partly Cloudy
4:51 AM 66.9 °F 57.9 °F 73% 30.23 in 10.0 mi NE 16.1 mph - N/A   Scattered Clouds
5:51 AM 66.0 °F 57.0 °F 73% 30.23 in 10.0 mi ENE 13.8 mph - N/A   Partly Cloudy
6:51 AM 66.9 °F 59.0 °F 76% 30.24 in 10.0 mi NE 18.4 mph - N/A   Scattered Clouds
7:51 AM 66.0 °F 57.9 °F 75% 30.25 in 10.0 mi NE 19.6 mph 25.3 mph N/A   Scattered Clouds
8:51 AM 68.0 °F 57.0 °F 68% 30.27 in 10.0 mi NE 20.7 mph 28.8 mph N/A   Scattered Clouds
9:51 AM 70.0 °F 55.9 °F 61% 30.27 in 10.0 mi NE 25.3 mph 29.9 mph N/A   Mostly Cloudy
10:51 AM 71.1 °F 54.0 °F 55% 30.27 in 10.0 mi NE 23.0 mph 29.9 mph N/A   Scattered Clouds
11:51 AM 73.0 °F 55.0 °F 53% 30.26 in 10.0 mi ENE 19.6 mph - N/A   Scattered Clouds
12:51 PM 75.0 °F 54.0 °F 48% 30.25 in 10.0 mi NE 17.3 mph - N/A   Scattered Clouds
1:51 PM 75.9 °F 53.1 °F 45% 30.25 in 10.0 mi ENE 18.4 mph 25.3 mph N/A   Mostly Cloudy
2:51 PM 75.9 °F 52.0 °F 43% 30.23 in 10.0 mi ENE 16.1 mph - N/A   Mostly Cloudy
3:51 PM 75.9 °F 53.1 °F 45% 30.21 in 10.0 mi ENE 16.1 mph - N/A   Partly Cloudy
4:51 PM 75.0 °F 54.0 °F 48% 30.21 in 10.0 mi ENE 16.1 mph - N/A   Scattered Clouds
5:51 PM 73.9 °F 53.1 °F 48% 30.21 in 10.0 mi ENE 17.3 mph - N/A   Scattered Clouds
6:51 PM 73.9 °F 54.0 °F 50% 30.22 in 10.0 mi ENE 12.7 mph 21.9 mph N/A   Mostly Cloudy
7:51 PM 72.0 °F 55.9 °F 57% 30.22 in 10.0 mi East 13.8 mph - N/A   Mostly Cloudy
8:51 PM 71.1 °F 57.0 °F 61% 30.23 in 10.0 mi ENE 11.5 mph - N/A   Scattered Clouds
9:51 PM 69.1 °F 55.9 °F 63% 30.24 in 10.0 mi East 12.7 mph - N/A   Scattered Clouds
10:51 PM 68.0 °F 57.0 °F 68% 30.22 in 10.0 mi East 13.8 mph - N/A   Scattered Clouds
11:51 PM 66.9 °F 53.1 °F 61% 30.23 in 10.0 mi ENE 17.3 mph 21.9 mph N/A   Partly Cloudy